Home > Weather > Tianjin > Past weeks

Flag for China Weather for the Past 2 Weeks in Tianjin, Tianjin Municipality, China

Now
68 °F

Clear.


Feels Like: 68 °F
Forecast: 58 / 79 °F
Wind: 10 mph from West

Location: Tianjin / Zhangguizhu

Current Time: May 6, 2016 at 10:10:16 PM

Latest Report: May 6, 2016 at 9:30 PM


Visibility: 10 mi

Pressure: 29.92 "Hg

Humidity: 23%

Dew Point: 28 °F

Location of TianjinLocation

Historic Weather in Tianjin — Graph

°F

Tianjin Temperature Yesterday

Maximum temperature yesterday: 70 °F (at 3:30 PM)
Minimum temperature yesterday: 59 °F (at 11:00 PM)
Average temperature yesterday: 65 °F

High & Low Weather Summary for the Past Weeks

 TemperatureHumidityPressure
High93 °F (May 1, 2:00 PM)94% (May 2, 2:30 PM)30.04 "Hg (May 2, 2:30 PM)
Low50 °F (Apr 24, 1:00 AM)7% (Apr 22, 2:30 PM)29.45 "Hg (May 3, 3:30 PM)
Average66 °F43%29.78 "Hg
* Reported Apr 21 9:00 PM — May 6 9:00 PM, Tianjin, Weather by CustomWeather, © 2016

Note: Actual official high and low records may vary slightly from our data, if they occured in-between our weather recording intervals... More about our weather records

Advertising

Tianjin Weather History for the Previous 24 Hours

Scroll right to see more
 ConditionsComfort  
Time TempWeatherWind HumidityBarometerVisibility
9:00 PM
Fri, May 6
66 °FClear.8 mph24%29.92 "Hg10 mi
8:30 PM68 °FClear.8 mph24%29.89 "Hg10 mi
8:00 PM68 °FClear.8 mph23%29.89 "Hg10 mi
7:30 PM68 °FClear.8 mph23%29.86 "Hg10 mi
7:00 PM68 °FSunny.8 mph23%29.86 "Hg10 mi
6:30 PM70 °FPassing clouds.8 mph21%29.86 "HgN/A
6:00 PM70 °FPassing clouds.10 mph23%29.86 "HgN/A
5:30 PM72 °FSunny.10 mph19%29.83 "Hg10 mi
5:00 PM72 °FSunny.10 mph19%29.83 "Hg10 mi
4:30 PM72 °FSunny.10 mph19%29.83 "Hg10 mi
4:00 PM72 °FSunny.15 mph17%29.83 "Hg10 mi
3:30 PM72 °FPassing clouds.13 mph20%29.83 "HgN/A
3:00 PM72 °FPassing clouds.13 mph19%29.83 "HgN/A
2:30 PM72 °FSunny.13 mph19%29.86 "Hg10 mi
2:00 PM72 °FPassing clouds.13 mph19%29.86 "HgN/A
1:30 PM72 °FPassing clouds.17 mph19%29.86 "HgN/A
1:00 PM70 °FPassing clouds.17 mph20%29.86 "HgN/A
12:30 PM70 °FSunny.17 mph20%29.86 "Hg10 mi
12:00 PM70 °FSunny.17 mph20%29.86 "Hg10 mi
11:30 AM70 °FSunny.20 mph21%29.86 "Hg10 mi
11:00 AM68 °FSunny.20 mph23%29.89 "Hg10 mi
10:30 AM66 °FSunny.22 mph22%29.89 "Hg10 mi
10:00 AM66 °FSunny.24 mph24%29.89 "Hg10 mi
9:30 AM64 °FSunny.24 mph24%29.89 "Hg10 mi
9:00 AM64 °FSunny.17 mph26%29.89 "Hg10 mi
8:30 AM61 °FSunny.20 mph25%29.89 "Hg10 mi
8:00 AM61 °FSunny.22 mph25%29.86 "Hg10 mi
7:30 AM61 °FSunny.15 mph25%29.89 "Hg10 mi
7:00 AM61 °FSunny.17 mph25%29.86 "Hg10 mi
6:30 AM59 °FSunny.15 mph27%29.86 "Hg10 mi
6:00 AM59 °FSunny.22 mph25%29.83 "Hg10 mi
5:30 AM59 °FLow level haze.24 mph23%29.83 "Hg4 mi
5:00 AM59 °FHaze.10 mph23%29.83 "Hg1 mi
4:30 AM59 °FHaze.10 mph23%29.80 "Hg1 mi
4:00 AM61 °FHaze.8 mph19%29.80 "Hg1 mi
3:30 AM61 °FHaze.13 mph19%29.80 "Hg1 mi
3:00 AM61 °FHaze.15 mph20%29.80 "Hg1 mi
2:30 AM63 °FHaze.17 mph20%29.77 "Hg2 mi
2:00 AM61 °FHaze.13 mph31%29.77 "Hg2 mi
1:30 AM59 °FHaze.8 mph63%29.77 "Hg2 mi
1:00 AM57 °FHaze.1 mph72%29.77 "Hg2 mi
12:30 AM55 °FHaze.1 mph82%29.74 "Hg2 mi
12:00 AM57 °FHaze.6 mph77%29.74 "Hg2 mi
11:30 PM
Thu, May 5
59 °FHaze.1 mph68%29.74 "Hg2 mi
11:00 PM59 °FHaze.No wind68%29.71 "Hg2 mi
10:00 PM61 °FHaze.1 mph63%29.71 "Hg3 mi
Weather by CustomWeather, © 2016

See weather overviewHow to use our weather pages